Regional Weather Roundup
Issued by NWS

Home | Current Version | Previous Version | Graphics & Text | Print | Product List | Glossary On
Versions: 1 2 3 4 5 6 7 8 9 10 11 12 13 14 15 16 17 18 19 20 21 22 23 24 25 26 27 28 29 30 31 32 33 34 35 36 37 38 39 40 41 42 43 44 45 46 47 48 49 50
000
ASUS43 KFSD 260010
RWRSD

WEATHER ROUNDUP FOR SOUTH DAKOTA
NATIONAL WEATHER SERVICE SIOUX FALLS SD
700 PM CDT MON MAY 25 2015

NOTE: "FAIR" INDICATES FEW OR NO CLOUDS BELOW 12,000 FEET WITH NO
SIGNIFICANT WEATHER AND/OR OBSTRUCTIONS TO VISIBILITY.


SDZ001>005-009-010-012>017-260100-
NORTHWEST AND NORTH CENTRAL SOUTH DAKOTA

CITY           SKY/WX    TMP DP  RH WIND       PRES   REMARKS
BUFFALO          N/A     57  52  83 E7        29.86R
FAITH            N/A     57  52  83 SE9       29.92R
MOBRIDGE       CLOUDY    66  55  67 SE7       29.85R
$$

SDZ012>016-024>037-041>051-057-063-072>074-260100-
SOUTHWEST AND SOUTH CENTRAL SOUTH DAKOTA

CITY           SKY/WX    TMP DP  RH WIND       PRES   REMARKS
RAPID CTY ARPT CLOUDY    57  53  86 NE14      29.88R
PIERRE         CLOUDY    62  52  69 NE13      29.82F
CUSTER         LGT RAIN  50  47  89 NE7       29.93R FOG
ELLSWORTH AFB  CLOUDY    55  55 100 NE9       29.88
PHILIP         CLOUDY    59  53  80 NE14      29.85R
PINE RIDGE     LGT RAIN  55  53  93 NW7       29.86S
SPEARFISH      LGT RAIN  52  52 100 NE3       29.94R
WINNER         MOCLDY    62  56  80 N8        29.80S
$$

SDZ004>011-016>023-039-040-260100-
NORTHEAST SOUTH DAKOTA

CITY           SKY/WX    TMP DP  RH WIND       PRES   REMARKS
ABERDEEN       CLOUDY    66  51  58 NE9       29.83S
WATERTOWN      CLOUDY    60  53  77 NE15      29.78F
BROOKINGS      MOSUNNY   64  57  77 N15       29.76F
SISSETON         N/A     63  53  70 NE20      29.80R
$$

SDZ017-020-022-023-036>040-048>070-260100-
SOUTHEAST SOUTH DAKOTA

CITY           SKY/WX    TMP DP  RH WIND       PRES   REMARKS
SIOUX FALLS    CLOUDY    69  59  70 N9        29.74F
HURON          MOSUNNY   64  52  64 NE14      29.78F
CHAMBERLAIN    CLOUDY    64  55  73 NE9       29.79S
MITCHELL       PTSUNNY   67  57  70 N13       29.76F
YANKTON        MOSUNNY   70  57  64 N10       29.72S
$$

ABBREVIATIONS USED IN REMARKS
   TC - TEMPERATURE IN CELSIUS
  WCI - WIND CHILL INDEX
   HX - HEAT INDEX
  VSB - VISIBILITY




USA.gov is the U.S. government's official web portal to all federal, state and local government web resources and services.